Weather History for Gillette, WY

Change the Weather History Date:

Thursday, April 24, 2014

  Actual Average Record
Temperature  
Mean Temperature 46 °F 45 °F  
Max Temperature 62 °F 59 °F 88 °F (1980)
Min Temperature 29 °F 32 °F 17 °F (2002)
Degree Days  
Heating Degree Days 19 20  
Month to date heating degree days 518 559  
Since 1 July heating degree days 7127 6906  
Cooling Degree Days 0 0  
Month to date cooling degree days 0 0  
Year to date cooling degree days 0 0  
Moisture  
Dew Point 23 °F    
Average Humidity 49    
Maximum Humidity 78    
Minimum Humidity 19    
Precipitation  
Precipitation 0.00 in 0.06 in 0.93 in (1935)
Month to date precipitation 0.37 1.03  
Year to date precipitation 2.74 2.77  
Sea Level Pressure  
Sea Level Pressure 29.82 in    
Wind  
Wind Speed 8 mph (WSW)    
Max Wind Speed 22 mph    
Max Gust Speed 28 mph    
Visibility 10 miles    
Events      
T = Trace of Precipitation, MM = Missing Value Source: NWS Daily Summary

Daily Weather History Graph

Daily Weather History Graph

Search for Another Location

Airport:

Trip Planner

Search our weather history database for the weather conditions in past years. The results will help you decide how hot, cold, wet, or windy it might be!

Date:

Astronomy

Apr. 24, 2014 Rise Set
Actual Time 6:03 AM MDT 7:57 PM MDT
Civil Twilight 5:32 AM MDT 8:29 PM MDT
Nautical Twilight 4:54 AM MDT 9:07 PM MDT
Astronomical Twilight 4:12 AM MDT 9:49 PM MDT
Moon 3:27 AM MDT (4/24) 3:05 PM MDT (4/24)
Length of Visible Light 14h 56m
Length of Day
13h 54m
Waning Crescent, 24% of the Moon is Illuminated
Apr 24
Waning Crescent
Apr 29
New
May 6
First Quarter
May 14
Full
May 21
Last Quarter

Hourly Weather History & Observations

Time (MDT) Temp. Windchill Dew Point Humidity Pressure Visibility Wind Dir Wind Speed Gust Speed Precip Events Conditions
12:53 AM 35.1 °F 27.4 °F 25.0 °F 67% 29.89 in 10.0 mi SW 10.4 mph - N/A   Clear
1:53 AM 34.0 °F 25.5 °F 25.0 °F 70% 29.91 in 10.0 mi SW 11.5 mph - N/A   Clear
2:53 AM 33.1 °F 25.5 °F 24.1 °F 70% 29.88 in 10.0 mi SW 9.2 mph - N/A   Clear
3:53 AM 32.0 °F 23.0 °F 19.0 °F 59% 29.88 in 10.0 mi SW 11.5 mph - N/A   Clear
4:53 AM 36.0 °F 26.3 °F 18.0 °F 48% 29.85 in 10.0 mi SW 16.1 mph - N/A   Clear
5:53 AM 37.0 °F 27.0 °F 17.1 °F 44% 29.84 in 10.0 mi SW 18.4 mph - N/A   Clear
6:53 AM 39.0 °F 29.6 °F 19.0 °F 45% 29.84 in 10.0 mi SW 18.4 mph - N/A   Clear
7:53 AM 44.1 °F 36.2 °F 21.0 °F 40% 29.85 in 10.0 mi SW 18.4 mph - N/A   Clear
8:53 AM 48.0 °F - 21.9 °F 36% 29.88 in 10.0 mi WSW 15.0 mph - N/A   Clear
9:53 AM 48.0 °F - 24.1 °F 39% 29.90 in 10.0 mi NNE 6.9 mph 18.4 mph N/A   Clear
10:53 AM 51.1 °F - 24.1 °F 35% 29.88 in 10.0 mi Variable 3.5 mph - N/A   Clear
11:53 AM 55.9 °F - 24.1 °F 29% 29.86 in 10.0 mi Variable 5.8 mph - N/A   Clear
12:53 PM 57.9 °F - 19.9 °F 23% 29.80 in 10.0 mi West 10.4 mph 23.0 mph N/A   Partly Cloudy
1:53 PM 60.1 °F - 19.9 °F 21% 29.77 in 10.0 mi West 10.4 mph 17.3 mph N/A   Clear
2:53 PM 59.0 °F - 17.1 °F 20% 29.76 in 10.0 mi Calm Calm - N/A   Clear
3:53 PM 61.0 °F - 19.9 °F 21% 29.74 in 10.0 mi West 5.8 mph - N/A   Clear
4:53 PM 57.9 °F - 24.1 °F 27% 29.74 in 10.0 mi NE 5.8 mph - N/A   Scattered Clouds
5:53 PM 57.9 °F - 24.1 °F 27% 29.73 in 10.0 mi ENE 8.1 mph - N/A   Partly Cloudy
6:53 PM 55.9 °F - 24.1 °F 29% 29.74 in 10.0 mi NE 8.1 mph - N/A   Overcast
7:53 PM 51.1 °F - 26.1 °F 38% 29.75 in 10.0 mi NE 6.9 mph - N/A   Overcast
8:53 PM 41.0 °F - 27.0 °F 57% 29.78 in 10.0 mi Calm Calm - N/A   Mostly Cloudy
9:53 PM 33.1 °F 30.0 °F 27.0 °F 78% 29.83 in 10.0 mi WSW 3.5 mph - N/A   Clear
10:53 PM 34.0 °F 31.0 °F 25.0 °F 70% 29.82 in 10.0 mi SW 3.5 mph - N/A   Clear
11:53 PM 30.9 °F - 24.1 °F 76% 29.83 in 10.0 mi Calm Calm - N/A   Clear